Weather History for Jefferson City, MO

Change the Weather History Date:

Thursday, March 21, 2013

  Actual Average Record
Temperature  
Mean Temperature 29 °F -  
Max Temperature 39 °F 57 °F 87 °F (1938)
Min Temperature 19 °F 32 °F 8 °F (1960)
Degree Days  
Heating Degree Days 36    
Moisture  
Dew Point 15 °F    
Average Humidity 58    
Maximum Humidity 79    
Minimum Humidity 29    
Precipitation  
Precipitation 0.00 in - - ()
Sea Level Pressure  
Sea Level Pressure 30.05 in    
Wind  
Wind Speed 3 mph (SE)    
Max Wind Speed 10 mph    
Max Gust Speed -    
Visibility 10 miles    
Events      
Averages and records for this station are not official NWS values.
T = Trace of Precipitation, MM = Missing Value Source: NWS Daily Summary

Daily Weather History Graph

Daily Weather History Graph

Search for Another Location

Airport:

Trip Planner

Search our weather history database for the weather conditions in past years. The results will help you decide how hot, cold, wet, or windy it might be!

Date:

Astronomy

Mar. 21, 2013 Rise Set
Actual Time 7:10 AM CDT 7:21 PM CDT
Civil Twilight 6:43 AM CDT 7:48 PM CDT
Nautical Twilight 6:12 AM CDT 8:19 PM CDT
Astronomical Twilight 5:41 AM CDT 8:50 PM CDT
Moon 1:55 PM CDT (3/21) 3:28 AM CDT (3/21)
Length of Visible Light 13h 04m
Length of Day
12h 11m
Waxing Gibbous, 69% of the Moon is Illuminated
Mar 21
Waxing Gibbous
Mar 27
Full
Apr 2
Last Quarter
Apr 10
New
Apr 18
First Quarter

Hourly Weather History & Observations

Time (CDT) Temp. Windchill Dew Point Humidity Pressure Visibility Wind Dir Wind Speed Gust Speed Precip Events Conditions
12:53 AM 21.9 °F 17.2 °F 12.9 °F 68% 30.14 in 10.0 mi NNW 3.5 mph - N/A   Clear
1:53 AM 19.9 °F - 12.0 °F 71% 30.12 in 10.0 mi Calm Calm - N/A   Clear
2:53 AM 21.0 °F - 10.0 °F 63% 30.12 in 10.0 mi Calm Calm - N/A   Clear
3:53 AM 19.9 °F 14.9 °F 12.0 °F 71% 30.12 in 10.0 mi NW 3.5 mph - N/A   Clear
4:53 AM 19.0 °F - 12.0 °F 74% 30.11 in 10.0 mi Calm Calm - N/A   Clear
5:53 AM 19.9 °F - 10.9 °F 68% 30.11 in 10.0 mi Calm Calm - N/A   Clear
6:53 AM 19.0 °F - 10.9 °F 71% 30.11 in 10.0 mi Calm Calm - N/A   Clear
7:53 AM 21.0 °F - 12.9 °F 71% 30.12 in 10.0 mi Calm Calm - N/A   Clear
8:53 AM 25.0 °F - 15.1 °F 66% 30.13 in 10.0 mi Calm Calm - N/A   Clear
9:53 AM 26.1 °F 20.5 °F 12.0 °F 55% 30.13 in 10.0 mi SSE 4.6 mph - N/A   Mostly Cloudy
10:53 AM 28.0 °F 21.7 °F 10.9 °F 49% 30.11 in 10.0 mi Variable 5.8 mph - N/A   Mostly Cloudy
11:53 AM 30.0 °F 24.1 °F 10.0 °F 43% 30.09 in 10.0 mi SSE 5.8 mph - N/A   Mostly Cloudy
12:53 PM 33.1 °F 26.1 °F 10.0 °F 38% 30.05 in 10.0 mi ESE 8.1 mph - N/A   Mostly Cloudy
1:53 PM 36.0 °F 29.0 °F 8.1 °F 31% 30.01 in 10.0 mi SE 9.2 mph - N/A   Scattered Clouds
2:53 PM 37.0 °F 30.4 °F 9.0 °F 31% 29.97 in 10.0 mi SE 9.2 mph - N/A   Overcast
3:53 PM 39.0 °F 35.7 °F 10.0 °F 30% 29.96 in 10.0 mi Variable 4.6 mph - N/A   Overcast
4:53 PM 39.0 °F 35.7 °F 9.0 °F 29% 29.96 in 10.0 mi SSE 4.6 mph - N/A   Overcast
5:53 PM 39.0 °F 33.4 °F 12.0 °F 33% 29.94 in 10.0 mi South 8.1 mph - N/A   Overcast
6:53 PM 37.0 °F 29.8 °F 18.0 °F 46% 29.95 in 10.0 mi South 10.4 mph - N/A   Overcast
7:53 PM 32.0 °F 25.6 °F 26.1 °F 79% 29.97 in 10.0 mi South 6.9 mph - N/A   Overcast
8:53 PM 33.1 °F 28.7 °F 26.1 °F 75% 29.98 in 10.0 mi SSE 4.6 mph - N/A   Overcast
9:53 PM 33.1 °F - 26.1 °F 75% 29.98 in 10.0 mi Calm Calm - N/A   Overcast
10:53 PM 33.1 °F 30.0 °F 26.1 °F 75% 29.98 in 10.0 mi East 3.5 mph - N/A   Overcast
11:53 PM 34.0 °F 29.8 °F 26.1 °F 73% 29.98 in 10.0 mi ENE 4.6 mph - N/A   Overcast